#timestamp,LO_Frequency,Hit,StdDev 
1693357215.5,286046999.3,N
1693357235.4,286046998.7,N
1693357255.2,286046998.3,N
1693357275.0,286046998.3,N
1693357275.9,286046998.3,N
1693357295.8,286047001.1,N
1693357315.6,286046998.3,N
1693357335.5,286047001.2,N
1693357355.3,286046998.8,N
1693357375.1,286046999.9,N
1693357395.9,286046998.7,N
1693357415.7,286046999.0,N
1693357435.5,286046998.7,N
1693357455.4,286046999.4,N
1693357475.2,286046998.9,N
1693357495.0,286047001.2,N
1693357496.0,286047001.2,N
1693357515.8,286047000.4,N
1693357535.6,286046998.3,N
1693357555.5,286046999.4,N
1693357575.3,286046998.9,N
1693357595.1,286046999.5,N
1693357615.9,286046997.3,N
1693357635.7,286046997.3,N
1693357655.5,286046998.0,N
1693357675.4,286046995.3,Y
1693357695.2,286046995.0,P
1693357715.1,286046997.8,N
1693357716.0,286046997.8,N
1693357735.8,286046997.5,N
1693357755.6,286046994.9,Y
1693357775.5,286046999.0,P
1693357795.3,286046998.8,N
1693357815.2,286046998.4,N
1693357835.9,286046999.4,N
1693357855.7,286046996.9,Y
1693357875.6,286047001.2,P
1693357895.4,286047000.9,N
1693357915.2,286047000.9,N
1693357935.1,286047001.1,N
1693357936.0,286047001.1,N
1693357955.8,286047000.6,N
1693357975.7,286047000.3,N
1693357995.5,286047000.8,N
1693358015.3,286047000.9,N
1693358035.2,286047000.3,N
1693358055.0,286047000.5,N
1693358055.9,286047000.5,N
1693358075.7,286047000.9,N
1693358095.6,286047000.7,N
1693358115.4,286047000.5,N
1693358135.3,286047000.3,N
1693358155.1,286047000.3,N
1693358156.0,286047000.3,N
1693358175.8,286047001.0,N
1693358195.7,286047000.5,N
1693358215.5,286047000.1,N
1693358235.4,286047002.4,Y
1693358255.2,286047000.2,P
1693358275.0,286047002.3,P
1693358275.9,286047002.3,N
1693358295.8,286047000.1,N
1693358315.6,286046999.9,N
1693358335.4,286047000.1,N
1693358355.3,286047002.6,N
1693358375.1,286047002.1,N
1693358395.9,286047001.9,N
1693358415.7,286047001.9,N
1693358435.5,286047001.4,N
1693358455.4,286047001.3,N
1693358475.2,286047004.1,Y
1693358495.1,286047002.4,P
1693358496.0,286047002.4,P
1693358515.8,286047001.3,N
1693358535.7,286047001.7,Y
1693358555.5,286047000.3,P
1693358575.3,286047000.0,N
1693358595.2,286047000.1,N
1693358615.0,286046999.7,N
1693358615.9,286046999.7,N
1693358635.7,286047002.6,Y
1693358655.6,286047002.8,P
1693358675.4,286047002.2,N
1693358695.3,286047004.4,P
1693358715.1,286047004.3,N
1693358716.0,286047004.3,N
1693358735.8,286047004.0,N
1693358755.7,286047004.0,N
1693358775.5,286047004.0,N
1693358795.3,286047003.9,N
1693358815.2,286047001.7,N
1693358835.0,286047001.4,N
1693358835.9,286047001.4,N
1693358855.8,286047001.6,N
1693358875.6,286047002.2,N
1693358895.4,286047002.1,N
1693358915.3,286047001.6,N
1693358935.2,286047001.4,N
1693358955.9,286047001.4,N
1693358975.7,286047004.4,Y
1693358995.6,286047001.1,P
1693359015.4,286046998.1,N
1693359035.3,286047000.7,N
1693359055.1,286047000.9,N
1693359056.0,286047000.9,N
1693359075.8,286047000.4,N
1693359095.7,286046999.9,N
1693359115.5,286046999.9,N
1693359135.3,286047002.8,N
1693359155.2,286046999.9,N
1693359175.0,286047002.4,N
1693359175.9,286047002.4,N
1693359195.8,286047002.5,N
1693359215.6,286047002.5,N
1693359235.4,286047001.9,N
1693359255.3,286047001.7,N
1693359275.1,286047001.7,N
1693359295.9,286047001.4,N
1693359315.7,286047004.4,Y
1693359335.6,286046999.8,P
1693359355.4,286046999.7,N
1693359375.2,286047002.4,P
1693359395.1,286047000.2,N
1693359396.0,286047000.2,N
1693359415.8,286047000.0,N
1693359435.6,286046999.9,N
1693359455.5,286047000.9,N
1693359475.3,286047000.2,N
1693359495.1,286047000.0,N
1693359515.9,286047000.0,N
1693359535.7,286047000.0,N
1693359555.6,286047000.3,N
1693359575.4,286047000.9,N
1693359595.2,286047000.5,N
1693359615.1,286047000.0,N
1693359616.0,286047000.0,N
1693359635.8,286047001.2,N
1693359655.7,286047000.9,N
1693359675.5,286047000.1,N
1693359695.3,286047002.7,Y
1693359715.2,286047000.9,P
1693359735.0,286047000.6,N
1693359735.9,286047000.6,N
1693359755.8,286047000.3,N
1693359775.6,286047000.2,N
1693359795.4,286047000.4,N
1693359815.3,286046999.8,N
1693359835.1,286047000.5,N
1693359855.8,286047000.3,N
1693359875.7,286046999.9,N
1693359895.5,286046999.8,N
1693359915.4,286047000.5,N
1693359935.2,286047001.0,Y
1693359955.0,286047000.4,P
1693359955.9,286047000.4,P
1693359975.8,286047000.5,P
1693359995.6,286047000.0,N
1693360015.5,286046998.1,Y
1693360035.3,286046998.1,P
1693360055.1,286047000.5,N
1693360075.9,286047000.4,N
1693360095.7,286047000.4,N
1693360115.6,286047000.9,N
1693360135.4,286046998.1,N
1693360155.2,286047000.8,N
1693360175.1,286047000.8,N
1693360176.0,286047000.8,N
1693360195.8,286047000.5,N
1693360215.6,286047001.0,N
1693360235.5,286046999.9,N
1693360255.3,286046999.8,N
1693360275.2,286047002.8,Y
1693360295.9,286046999.7,P
1693360315.7,286047000.5,N
1693360335.6,286046999.9,N
1693360355.4,286046999.8,N
1693360375.3,286047000.4,N
1693360395.1,286047000.2,N
1693360396.0,286047000.2,N
1693360415.8,286047000.2,N
1693360435.7,286047000.0,N
1693360455.5,286046999.9,N
1693360475.3,286047000.0,N
1693360495.2,286047002.4,Y
1693360515.0,286047002.3,P
1693360515.9,286047002.3,N
1693360535.8,286046999.8,N
1693360555.6,286047002.4,N
1693360575.4,286047001.5,N
1693360595.3,286047002.0,N
1693360615.1,286047000.1,N
1693360635.8,286047001.6,N
1693360655.7,286047001.6,N
1693360675.5,286046999.7,N
1693360695.4,286047000.1,N
1693360715.2,286046999.7,N
1693360735.0,286047002.8,N
1693360735.9,286047002.8,N
1693360755.8,286047002.7,N
1693360775.6,286047002.2,N
1693360795.4,286047002.0,N
